Flag for Germany Weather past 2 weeks in Schönebeck, Saxony-Anhalt, Germany

Now
35 °F

Passing clouds.


Feels Like: 35 °F
Forecast: 31 / 49 °F
Wind: 2 mph from Southeast

Location: Magdeburg

Current Time: Feb 27, 2015 at 12:39:41 AM

Latest Report: Feb 27, 2015 at 12:00 AM


Visibility: 11 mi

Pressure: 29.95 "Hg

Humidity: 74%

Dew point: 28 °F

Location of SchönebeckLocation

Historic Weather in Schönebeck — Graph

°F

Schönebeck temperature yesterday

Maximum temperature yesterday: 49 °F (at 2:00 PM)
Minimum temperature yesterday: 29 °F (at 5:00 AM)
Average temperature yesterday: 38 °F

Past Weeks' High & Low Weather Summary

 TemperatureHumidityPressure
High49 °F (Feb 20, 4:00 PM)100% (Feb 12, 9:00 AM)30.76 "Hg (Feb 12, 9:00 AM)
Low25 °F (Feb 17, 8:00 AM)49% (Feb 26, 5:00 PM)29.38 "Hg (Feb 21, 11:00 AM)
Average36 °F82%30.03 "Hg
* Reported Feb 11 11:00 PM — Feb 26 11:00 PM, Schönebeck, Weather by CustomWeather, © 2015

Note: Actual official high and low records may vary slightly from our data, if they occured in-between our weather recording intervals... More about our weather records

Advertising

Schönebeck weather history for previous 24 hours

 ConditionsComfort  
Time TempWeatherWind HumidityBarometerVisibility
11:00 PM
Thu, Feb 26
36 °FPassing clouds.3 mph74%29.96 "Hg12 mi
9:00 PM38 °FClear.3 mph66%30.00 "Hg16 mi
8:00 PM39 °FClear.3 mph65%30.02 "Hg19 mi
7:00 PM42 °FClear.3 mph58%30.03 "Hg19 mi
6:00 PM44 °FClear.3 mph58%30.04 "Hg19 mi
5:00 PM48 °FSunny.3 mph49%30.05 "Hg25 mi
3:00 PM49 °FSunny.6 mph50%30.09 "Hg19 mi
2:00 PM49 °FSunny.6 mph53%30.11 "Hg19 mi
1:00 PM47 °FSunny.5 mph61%30.14 "Hg19 mi
12:00 PM44 °FSunny.3 mph69%30.17 "Hg16 mi
11:00 AM40 °FSunny.3 mph73%30.18 "Hg16 mi
10:00 AM37 °FPassing clouds.2 mph75%30.19 "Hg10 mi
9:00 AM33 °FPassing clouds.2 mph80%30.20 "Hg10 mi
7:00 AM29 °FPassing clouds.2 mph91%30.19 "Hg10 mi
6:00 AM29 °FClear.2 mph90%30.19 "Hg10 mi
5:00 AM29 °FPassing clouds.2 mph91%30.19 "Hg7 mi
3:00 AM29 °FPassing clouds.2 mph92%30.19 "Hg7 mi
2:00 AM30 °FPassing clouds.2 mph91%30.18 "Hg9 mi
1:00 AM32 °FPassing clouds.2 mph87%30.18 "Hg11 mi
12:00 AM31 °FPassing clouds.2 mph91%30.17 "Hg11 mi
Weather by CustomWeather, © 2015

See weather overviewHow to use our weather pages